"read_dt","SO2 (ppb)","flags","PMT voltage (V)","lamp voltage (V)","lamp intensity (Hz)","internal temp (C)","react chamber temp (C)","sample flow (l/min)","pres (mmHg)","SO2 bkg (ppb)","SO2 coefficient"
2014-06-15 00:00:00,1810E-3,5C000000,-0724,0841,12160,030.0,045.5,0.482,738.2,01.18,0.508
2014-06-15 00:01:00,1804E-3,5C000000,-0724,0841,12068,029.9,045.5,0.483,738.2,01.18,0.508
2014-06-15 00:02:00,1794E-3,5C000000,-0724,0841,12060,029.8,045.5,0.483,738.1,01.18,0.508
2014-06-15 00:03:00,1854E-3,5C000000,-0724,0842,12124,029.8,045.5,0.483,738.0,01.18,0.508
2014-06-15 00:04:00,1869E-3,5C000000,-0724,0842,12136,029.7,045.5,0.483,738.0,01.18,0.508
2014-06-15 00:05:00,1837E-3,5C000000,-0724,0841,12185,029.7,045.5,0.483,738.0,01.18,0.508
2014-06-15 00:06:00,1777E-3,5C000000,-0724,0842,11864,029.7,045.5,0.483,738.0,01.18,0.508
2014-06-15 00:07:00,1678E-3,5C000000,-0724,0842,11942,029.6,045.6,0.483,738.0,01.18,0.508
2014-06-15 00:08:00,1765E-3,5C000000,-0724,0841,11985,029.6,045.5,0.483,738.0,01.18,0.508
2014-06-15 00:09:00,1848E-3,5C000000,-0724,0842,11945,029.5,045.6,0.483,737.7,01.18,0.508
2014-06-15 00:10:00,1814E-3,5C000000,-0724,0841,12203,029.5,045.5,0.484,737.9,01.18,0.508
2014-06-15 00:11:00,1822E-3,5C000000,-0724,0841,11899,029.4,045.5,0.484,737.9,01.18,0.508
2014-06-15 00:12:00,1913E-3,5C000000,-0724,0841,12027,029.4,045.5,0.484,738.0,01.18,0.508
2014-06-15 00:13:00,1759E-3,5C000000,-0724,0841,12210,029.3,045.6,0.484,737.9,01.18,0.508
2014-06-15 00:14:00,1797E-3,5C000000,-0724,0841,12091,029.3,045.5,0.484,738.0,01.18,0.508
2014-06-15 00:15:00,1789E-3,5C000000,-0724,0842,12145,029.3,045.5,0.484,737.9,01.18,0.508
2014-06-15 00:16:00,1799E-3,5C000000,-0724,0842,12019,029.3,045.5,0.484,737.8,01.18,0.508
2014-06-15 00:17:00,1716E-3,5C000000,-0724,0841,12082,029.3,045.5,0.484,737.9,01.18,0.508
2014-06-15 00:18:00,1841E-3,5C000000,-0724,0842,12080,029.3,045.5,0.484,738.0,01.18,0.508
2014-06-15 00:19:00,1809E-3,5C000000,-0724,0840,12076,029.3,045.5,0.484,738.0,01.18,0.508
2014-06-15 00:20:00,1897E-3,5C000000,-0724,0841,12197,029.3,045.5,0.484,737.8,01.18,0.508
2014-06-15 00:21:00,1785E-3,5C000000,-0724,0841,12037,029.3,045.5,0.484,737.9,01.18,0.508
2014-06-15 00:22:00,1838E-3,5C000000,-0724,0841,12147,029.4,045.5,0.483,737.8,01.18,0.508
2014-06-15 00:23:00,1793E-3,5C000000,-0724,0841,12104,029.4,045.5,0.483,737.9,01.18,0.508
2014-06-15 00:24:00,1983E-3,5C000000,-0724,0841,11917,029.4,045.5,0.484,737.9,01.18,0.508
2014-06-15 00:25:00,1853E-3,5C000000,-0724,0841,11957,029.4,045.6,0.484,738.0,01.18,0.508
2014-06-15 00:26:00,1870E-3,5C000000,-0724,0842,12153,029.5,045.5,0.484,738.0,01.18,0.508
2014-06-15 00:27:00,1891E-3,5C000000,-0724,0842,12140,029.6,045.5,0.484,738.0,01.18,0.508
2014-06-15 00:28:00,1813E-3,5C000000,-0724,0842,12059,029.6,045.5,0.484,738.0,01.18,0.508
2014-06-15 00:29:00,1866E-3,5C000000,-0724,0842,12073,029.7,045.5,0.484,737.9,01.18,0.508
2014-06-15 00:30:00,1774E-3,5C000000,-0724,0842,11972,029.7,045.5,0.483,737.9,01.18,0.508
2014-06-15 00:31:00,1762E-3,5C000000,-0724,0842,12101,029.8,045.5,0.483,737.9,01.18,0.508
2014-06-15 00:32:00,1732E-3,5C000000,-0724,0844,12093,029.9,045.5,0.483,737.7,01.18,0.508
2014-06-15 00:33:00,1742E-3,5C000000,-0724,0841,12129,029.9,045.6,0.483,738.0,01.18,0.508
2014-06-15 00:34:00,1725E-3,5C000000,-0724,0843,12108,030.0,045.6,0.483,737.8,01.18,0.508
2014-06-15 00:35:00,1967E-3,5C000000,-0724,0842,12086,030.0,045.6,0.483,737.8,01.18,0.508
2014-06-15 00:36:00,1945E-3,5C000000,-0724,0842,12192,030.1,045.6,0.483,737.6,01.18,0.508
2014-06-15 00:37:00,1931E-3,5C000000,-0724,0842,12237,030.1,045.6,0.483,737.8,01.18,0.508
2014-06-15 00:38:00,1697E-3,5C000000,-0724,0841,12045,030.2,045.6,0.483,737.9,01.18,0.508
2014-06-15 00:39:00,1783E-3,5C000000,-0724,0841,11861,030.2,045.6,0.483,737.9,01.18,0.508
2014-06-15 00:40:00,1882E-3,5C000000,-0724,0843,12183,030.2,045.6,0.483,737.9,01.18,0.508
2014-06-15 00:41:00,1797E-3,5C000000,-0724,0841,11962,030.3,045.6,0.483,737.7,01.18,0.508
2014-06-15 00:42:00,1749E-3,5C000000,-0724,0842,12133,030.3,045.6,0.483,737.6,01.18,0.508
2014-06-15 00:43:00,1804E-3,5C000000,-0724,0842,11947,030.4,045.6,0.482,737.8,01.18,0.508
2014-06-15 00:44:00,1756E-3,5C000000,-0724,0841,12128,030.4,045.6,0.482,737.7,01.18,0.508
2014-06-15 00:45:00,1793E-3,5C000000,-0724,0841,11949,030.5,045.6,0.482,737.7,01.18,0.508
2014-06-15 00:46:00,1781E-3,5C000000,-0724,0843,12069,030.5,045.5,0.482,737.7,01.18,0.508
2014-06-15 00:47:00,1941E-3,5C000000,-0724,0842,12190,030.5,045.6,0.483,737.6,01.18,0.508
2014-06-15 00:48:00,1642E-3,5C000000,-0724,0842,12019,030.6,045.6,0.482,737.7,01.18,0.508
2014-06-15 00:49:00,1783E-3,5C000000,-0724,0843,12043,030.6,045.6,0.482,737.5,01.18,0.508
2014-06-15 00:50:00,1827E-3,5C000000,-0724,0843,12086,030.7,045.6,0.482,737.7,01.18,0.508
2014-06-15 00:51:00,1853E-3,5C000000,-0724,0842,12213,030.7,045.6,0.482,737.6,01.18,0.508
2014-06-15 00:52:00,1884E-3,5C000000,-0724,0842,12127,030.7,045.6,0.482,737.7,01.18,0.508
2014-06-15 00:53:00,1733E-3,5C000000,-0724,0842,12024,030.8,045.6,0.482,737.7,01.18,0.508
2014-06-15 00:54:00,1742E-3,5C000000,-0724,0842,11976,030.8,045.6,0.482,737.7,01.18,0.508
2014-06-15 00:55:00,1754E-3,5C000000,-0724,0842,11969,030.8,045.6,0.482,737.6,01.18,0.508
2014-06-15 00:56:00,1770E-3,5C000000,-0724,0843,12308,030.9,045.6,0.481,737.6,01.18,0.508
2014-06-15 00:57:00,1791E-3,5C000000,-0724,0843,11995,030.9,045.6,0.481,737.6,01.18,0.508
2014-06-15 00:58:00,1788E-3,5C000000,-0724,0842,12099,030.9,045.6,0.481,737.6,01.18,0.508
2014-06-15 00:59:00,1802E-3,5C000000,-0724,0842,12025,030.9,045.6,0.481,737.6,01.18,0.508
2014-06-15 01:00:00,1845E-3,5C000000,-0724,0842,11975,030.9,045.6,0.482,737.6,01.18,0.508
2014-06-15 01:01:00,1690E-3,5C000000,-0724,0842,11984,030.8,045.6,0.482,737.7,01.18,0.508
2014-06-15 01:02:00,1737E-3,5C000000,-0724,0843,12143,030.8,045.6,0.482,737.7,01.18,0.508
2014-06-15 01:03:00,1975E-3,5C000000,-0724,0842,12005,030.7,045.6,0.482,737.7,01.18,0.508
2014-06-15 01:04:00,1805E-3,5C000000,-0724,0842,12080,030.6,045.6,0.481,737.8,01.18,0.508
2014-06-15 01:05:00,1815E-3,5C000000,-0724,0842,12105,030.5,045.6,0.481,737.9,01.18,0.508
2014-06-15 01:06:00,1827E-3,5C000000,-0724,0842,11973,030.4,045.6,0.481,737.8,01.18,0.508
2014-06-15 01:07:00,1830E-3,5C000000,-0724,0841,11976,030.4,045.5,0.482,737.8,01.18,0.508
2014-06-15 01:08:00,1771E-3,5C000000,-0724,0843,11848,030.3,045.5,0.482,737.9,01.18,0.508
2014-06-15 01:09:00,1851E-3,5C000000,-0724,0842,12067,030.2,045.6,0.482,737.8,01.18,0.508
2014-06-15 01:10:00,1709E-3,5C000000,-0724,0843,12172,030.2,045.6,0.482,737.8,01.18,0.508
2014-06-15 01:11:00,1947E-3,5C000000,-0724,0842,12198,030.1,045.6,0.482,737.9,01.18,0.508
2014-06-15 01:12:00,1688E-3,5C000000,-0724,0843,11973,030.1,045.6,0.482,737.8,01.18,0.508
2014-06-15 01:13:00,1774E-3,5C000000,-0724,0842,12051,030.0,045.6,0.483,737.8,01.18,0.508
2014-06-15 01:14:00,1794E-3,5C000000,-0724,0841,12174,030.0,045.6,0.483,737.8,01.18,0.508
2014-06-15 01:15:00,1935E-3,5C000000,-0724,0842,12159,029.9,045.5,0.483,737.9,01.18,0.508
2014-06-15 01:16:00,1723E-3,5C000000,-0724,0842,12151,029.9,045.5,0.483,737.7,01.18,0.508
2014-06-15 01:17:00,1776E-3,5C000000,-0724,0841,12139,029.9,045.5,0.483,737.8,01.18,0.508
2014-06-15 01:18:00,1785E-3,5C000000,-0724,0842,11953,029.8,045.6,0.483,737.5,01.18,0.508
2014-06-15 01:19:00,2013E-3,5C000000,-0724,0843,12038,029.8,045.6,0.483,737.6,01.18,0.508
2014-06-15 01:20:00,1829E-3,5C000000,-0724,0843,12189,029.7,045.5,0.483,737.6,01.18,0.508
2014-06-15 01:21:00,1725E-3,5C000000,-0724,0841,11901,029.7,045.5,0.483,737.7,01.18,0.508
2014-06-15 01:22:00,1888E-3,5C000000,-0724,0841,12083,029.7,045.5,0.483,737.6,01.18,0.508
2014-06-15 01:23:00,1831E-3,5C000000,-0724,0843,12187,029.6,045.6,0.483,737.5,01.18,0.508
2014-06-15 01:24:00,1880E-3,5C000000,-0724,0842,12108,029.6,045.5,0.483,737.5,01.18,0.508
2014-06-15 01:25:00,1751E-3,5C000000,-0724,0842,12116,029.6,045.5,0.483,737.6,01.18,0.508
2014-06-15 01:26:00,1944E-3,5C000000,-0724,0842,12149,029.5,045.5,0.483,737.4,01.18,0.508
2014-06-15 01:27:00,1778E-3,5C000000,-0724,0843,12251,029.5,045.6,0.483,737.4,01.18,0.508
2014-06-15 01:28:00,1813E-3,5C000000,-0724,0842,11943,029.5,045.6,0.483,737.3,01.18,0.508
2014-06-15 01:29:00,1833E-3,5C000000,-0724,0843,12147,029.5,045.5,0.483,737.3,01.18,0.508
2014-06-15 01:30:00,1776E-3,5C000000,-0724,0842,12077,029.5,045.5,0.483,737.3,01.18,0.508
2014-06-15 01:31:00,1787E-3,5C000000,-0724,0841,12075,029.5,045.5,0.484,737.4,01.18,0.508
2014-06-15 01:32:00,1831E-3,5C000000,-0724,0842,12004,029.4,045.5,0.484,737.0,01.18,0.508
2014-06-15 01:33:00,1681E-3,5C000000,-0724,0843,12087,029.4,045.5,0.483,737.3,01.18,0.508
2014-06-15 01:34:00,1708E-3,5C000000,-0724,0842,11947,029.4,045.5,0.483,737.2,01.18,0.508
2014-06-15 01:35:00,1818E-3,5C000000,-0724,0841,12001,029.3,045.5,0.483,737.3,01.18,0.508
2014-06-15 01:36:00,1815E-3,5C000000,-0724,0841,12106,029.3,045.5,0.483,737.3,01.18,0.508
2014-06-15 01:37:00,1927E-3,5C000000,-0724,0842,12213,029.3,045.5,0.483,737.1,01.18,0.508
2014-06-15 01:38:00,1794E-3,5C000000,-0724,0842,12127,029.3,045.5,0.484,737.3,01.18,0.508
2014-06-15 01:39:00,1908E-3,5C000000,-0724,0841,11904,029.3,045.5,0.484,737.2,01.18,0.508
2014-06-15 01:40:00,1823E-3,5C000000,-0724,0841,12134,029.3,045.5,0.484,737.1,01.18,0.508
2014-06-15 01:41:00,1890E-3,5C000000,-0724,0841,11893,029.3,045.5,0.483,737.2,01.18,0.508
2014-06-15 01:42:00,1823E-3,5C000000,-0724,0841,12109,029.2,045.5,0.483,737.2,01.18,0.508
2014-06-15 01:43:00,1881E-3,5C000000,-0724,0842,12104,029.2,045.5,0.483,737.2,01.18,0.508
2014-06-15 01:44:00,1759E-3,5C000000,-0724,0841,12084,029.2,045.5,0.484,737.1,01.18,0.508
2014-06-15 01:45:00,1925E-3,5C000000,-0724,0842,12142,029.1,045.5,0.484,737.2,01.18,0.508
2014-06-15 01:46:00,1822E-3,5C000000,-0724,0842,12037,029.1,045.5,0.484,737.2,01.18,0.508
2014-06-15 01:47:00,1897E-3,5C000000,-0724,0841,11967,029.1,045.5,0.483,737.2,01.18,0.508
2014-06-15 01:48:00,1850E-3,5C000000,-0724,0842,12199,029.1,045.5,0.483,737.3,01.18,0.508
2014-06-15 01:49:00,1944E-3,5C000000,-0724,0841,12213,029.1,045.5,0.484,737.2,01.18,0.508
2014-06-15 01:50:00,1766E-3,5C000000,-0724,0842,12030,029.1,045.5,0.484,737.2,01.18,0.508
2014-06-15 01:51:00,1868E-3,5C000000,-0724,0840,11974,029.1,045.5,0.484,737.1,01.18,0.508
2014-06-15 01:52:00,1892E-3,5C000000,-0724,0841,11778,029.1,045.5,0.484,737.1,01.18,0.508
2014-06-15 01:53:00,1993E-3,5C000000,-0724,0841,12133,029.0,045.5,0.483,737.2,01.18,0.508
2014-06-15 01:54:00,1848E-3,5C000000,-0724,0842,12189,029.0,045.5,0.484,737.2,01.18,0.508
2014-06-15 01:55:00,1859E-3,5C000000,-0724,0842,12190,029.0,045.5,0.484,737.0,01.18,0.508
2014-06-15 01:56:00,1962E-3,5C000000,-0724,0842,12176,029.0,045.5,0.484,736.9,01.18,0.508
2014-06-15 01:57:00,1756E-3,5C000000,-0724,0843,12137,029.0,045.5,0.484,737.1,01.18,0.508
2014-06-15 01:58:00,1804E-3,5C000000,-0724,0842,12073,029.0,045.5,0.484,737.1,01.18,0.508
2014-06-15 01:59:00,1793E-3,5C000000,-0724,0840,12216,029.0,045.5,0.484,737.2,01.18,0.508
2014-06-15 02:00:00,1858E-3,5C000000,-0724,0841,11851,029.0,045.5,0.484,737.1,01.18,0.508
2014-06-15 02:01:00,1796E-3,5C000000,-0724,0842,12114,029.0,045.5,0.484,737.2,01.18,0.508
2014-06-15 02:02:00,1817E-3,5C000000,-0724,0841,11935,029.0,045.5,0.484,737.0,01.18,0.508
2014-06-15 02:03:00,1786E-3,5C000000,-0724,0841,12152,029.0,045.5,0.484,737.1,01.18,0.508
2014-06-15 02:04:00,1791E-3,5C000000,-0724,0841,12174,029.0,045.5,0.484,737.2,01.18,0.508
2014-06-15 02:05:00,1843E-3,5C000000,-0724,0841,11989,028.9,045.5,0.484,737.1,01.18,0.508
2014-06-15 02:06:00,1786E-3,5C000000,-0724,0841,12063,028.9,045.5,0.484,737.2,01.18,0.508
2014-06-15 02:07:00,1854E-3,5C000000,-0724,0841,11968,029.0,045.5,0.484,737.1,01.18,0.508
2014-06-15 02:08:00,1862E-3,5C000000,-0724,0841,11977,029.0,045.5,0.484,737.1,01.18,0.508
2014-06-15 02:09:00,1776E-3,5C000000,-0724,0843,12038,028.9,045.5,0.484,737.2,01.18,0.508
2014-06-15 02:10:00,1804E-3,5C000000,-0724,0841,12108,028.9,045.5,0.484,737.1,01.18,0.508
2014-06-15 02:11:00,1762E-3,5C000000,-0724,0842,12325,029.0,045.5,0.484,737.1,01.18,0.508
2014-06-15 02:12:00,1887E-3,5C000000,-0724,0841,12096,029.0,045.5,0.484,737.1,01.18,0.508
2014-06-15 02:13:00,1724E-3,5C000000,-0724,0841,12117,029.0,045.5,0.484,737.2,01.18,0.508
2014-06-15 02:14:00,1726E-3,5C000000,-0724,0840,11976,029.0,045.5,0.484,737.1,01.18,0.508
2014-06-15 02:15:00,1813E-3,5C000000,-0724,0842,12001,029.0,045.5,0.484,737.1,01.18,0.508
2014-06-15 02:16:00,1738E-3,5C000000,-0724,0842,12245,029.0,045.5,0.484,737.1,01.18,0.508
2014-06-15 02:17:00,1931E-3,5C000000,-0724,0841,12238,029.0,045.5,0.484,737.0,01.18,0.508
2014-06-15 02:18:00,1761E-3,5C000000,-0724,0841,12230,029.0,045.5,0.484,737.1,01.18,0.508
2014-06-15 02:19:00,1791E-3,5C000000,-0724,0841,12035,029.0,045.5,0.484,737.1,01.18,0.508
2014-06-15 02:20:00,1811E-3,5C000000,-0724,0842,12094,029.0,045.5,0.484,737.1,01.18,0.508
2014-06-15 02:21:00,1807E-3,5C000000,-0724,0841,12200,029.0,045.5,0.484,737.0,01.18,0.508
2014-06-15 02:22:00,1763E-3,5C000000,-0724,0842,11857,029.0,045.5,0.484,737.0,01.18,0.508
2014-06-15 02:23:00,1820E-3,5C000000,-0724,0841,12124,029.0,045.5,0.484,737.0,01.18,0.508
2014-06-15 02:24:00,1787E-3,5C000000,-0724,0842,12042,029.0,045.5,0.484,737.0,01.18,0.508
2014-06-15 02:25:00,1939E-3,5C000000,-0724,0841,12117,029.0,045.5,0.484,736.9,01.18,0.508
2014-06-15 02:26:00,1860E-3,5C000000,-0724,0842,12073,028.9,045.5,0.484,737.0,01.18,0.508
2014-06-15 02:27:00,1898E-3,5C000000,-0724,0841,12154,028.9,045.5,0.484,736.9,01.18,0.508
2014-06-15 02:28:00,1825E-3,5C000000,-0724,0842,11879,028.9,045.5,0.484,737.0,01.18,0.508
2014-06-15 02:29:00,1779E-3,5C000000,-0724,0841,12132,028.9,045.5,0.483,736.9,01.18,0.508
2014-06-15 02:30:00,1899E-3,5C000000,-0724,0841,12039,028.9,045.5,0.484,736.8,01.18,0.508
2014-06-15 02:31:00,1717E-3,5C000000,-0724,0841,11841,028.9,045.5,0.484,736.9,01.18,0.508
2014-06-15 02:32:00,1882E-3,5C000000,-0724,0842,12113,028.9,045.5,0.483,736.9,01.18,0.508
2014-06-15 02:33:00,1853E-3,5C000000,-0724,0842,12113,028.9,045.5,0.484,736.8,01.18,0.508
2014-06-15 02:34:00,1871E-3,5C000000,-0724,0841,12130,028.9,045.5,0.484,736.9,01.18,0.508
2014-06-15 02:35:00,1873E-3,5C000000,-0724,0841,11937,028.9,045.5,0.484,736.9,01.18,0.508
2014-06-15 02:36:00,1816E-3,5C000000,-0724,0841,12024,028.9,045.5,0.483,736.9,01.18,0.508
2014-06-15 02:37:00,1864E-3,5C000000,-0724,0840,11973,028.9,045.5,0.484,736.8,01.18,0.508
2014-06-15 02:38:00,1702E-3,5C000000,-0724,0841,12053,028.9,045.5,0.484,736.9,01.18,0.508
2014-06-15 02:39:00,1874E-3,5C000000,-0724,0840,12135,028.9,045.5,0.484,736.9,01.18,0.508
2014-06-15 02:40:00,1938E-3,5C000000,-0724,0842,12112,028.9,045.5,0.483,736.8,01.18,0.508
2014-06-15 02:41:00,1871E-3,5C000000,-0724,0842,11972,028.9,045.5,0.484,736.9,01.18,0.508
2014-06-15 02:42:00,1833E-3,5C000000,-0724,0841,11888,028.9,045.5,0.484,736.8,01.18,0.508
2014-06-15 02:43:00,1872E-3,5C000000,-0724,0842,11983,028.9,045.5,0.484,736.8,01.18,0.508
2014-06-15 02:44:00,1797E-3,5C000000,-0724,0841,12054,028.9,045.5,0.483,736.6,01.18,0.508
2014-06-15 02:45:00,1833E-3,5C000000,-0724,0841,12114,028.9,045.5,0.484,736.5,01.18,0.508
2014-06-15 02:46:00,1750E-3,5C000000,-0724,0842,12143,028.9,045.5,0.484,736.7,01.18,0.508
2014-06-15 02:47:00,1818E-3,5C000000,-0724,0843,12092,028.9,045.5,0.484,736.5,01.18,0.508
2014-06-15 02:48:00,1869E-3,5C000000,-0724,0841,12110,028.9,045.5,0.483,736.6,01.18,0.508
2014-06-15 02:49:00,1881E-3,5C000000,-0724,0843,12025,028.9,045.5,0.483,736.6,01.18,0.508
2014-06-15 02:50:00,1839E-3,5C000000,-0724,0842,12117,028.9,045.5,0.484,736.7,01.18,0.508
2014-06-15 02:51:00,1790E-3,5C000000,-0724,0842,12204,028.8,045.5,0.484,736.7,01.18,0.508
2014-06-15 02:52:00,1864E-3,5C000000,-0724,0841,12148,028.9,045.5,0.484,736.7,01.18,0.508
2014-06-15 02:53:00,1737E-3,5C000000,-0724,0841,12028,028.9,045.5,0.484,736.6,01.18,0.508
2014-06-15 02:54:00,1847E-3,5C000000,-0724,0840,12082,028.9,045.5,0.483,736.6,01.18,0.508
2014-06-15 02:55:00,1701E-3,5C000000,-0724,0840,12251,028.8,045.5,0.484,736.6,01.18,0.508
2014-06-15 02:56:00,1872E-3,5C000000,-0724,0840,12180,028.9,045.5,0.484,736.5,01.18,0.508
2014-06-15 02:57:00,1837E-3,5C000000,-0724,0840,12079,028.8,045.5,0.484,736.7,01.18,0.508
2014-06-15 02:58:00,1825E-3,5C000000,-0724,0842,11795,028.8,045.5,0.483,736.5,01.18,0.508
2014-06-15 02:59:00,1925E-3,5C000000,-0724,0841,12174,028.8,045.5,0.483,736.6,01.18,0.508
2014-06-15 03:00:00,1796E-3,5C000000,-0724,0841,12133,028.8,045.5,0.484,736.5,01.18,0.508
2014-06-15 03:01:00,1838E-3,5C000000,-0724,0841,12056,028.9,045.5,0.484,736.5,01.18,0.508
2014-06-15 03:02:00,1652E-3,5C000000,-0724,0841,12117,028.8,045.5,0.484,736.5,01.18,0.508
2014-06-15 03:03:00,1801E-3,5C000000,-0724,0842,12140,028.8,045.5,0.483,736.5,01.18,0.508
2014-06-15 03:04:00,1863E-3,5C000000,-0724,0841,11875,028.8,045.5,0.483,736.5,01.18,0.508
2014-06-15 03:05:00,1902E-3,5C000000,-0724,0842,11985,028.8,045.5,0.484,736.4,01.18,0.508
2014-06-15 03:06:00,1752E-3,5C000000,-0724,0842,12302,028.8,045.5,0.484,736.4,01.18,0.508
2014-06-15 03:07:00,1972E-3,5C000000,-0724,0841,12080,028.8,045.5,0.484,736.4,01.18,0.508
2014-06-15 03:08:00,1879E-3,5C000000,-0724,0842,12118,028.8,045.5,0.483,736.4,01.18,0.508
2014-06-15 03:09:00,1780E-3,5C000000,-0724,0841,12025,028.8,045.5,0.483,736.4,01.18,0.508
2014-06-15 03:10:00,1835E-3,5C000000,-0724,0841,12077,028.8,045.5,0.484,736.5,01.18,0.508
2014-06-15 03:11:00,1688E-3,5C000000,-0724,0843,11884,028.8,045.5,0.484,736.4,01.18,0.508
2014-06-15 03:12:00,1761E-3,5C000000,-0724,0841,11922,028.8,045.5,0.484,736.5,01.18,0.508
2014-06-15 03:13:00,1860E-3,5C000000,-0724,0842,12143,028.8,045.5,0.483,736.3,01.18,0.508
2014-06-15 03:14:00,1722E-3,5C000000,-0724,0842,12133,028.8,045.5,0.483,736.4,01.18,0.508
2014-06-15 03:15:00,1772E-3,5C000000,-0724,0841,12122,028.8,045.5,0.484,736.2,01.18,0.508
2014-06-15 03:16:00,1764E-3,5C000000,-0724,0841,12082,028.8,045.5,0.484,736.3,01.18,0.508
2014-06-15 03:17:00,1743E-3,5C000000,-0724,0842,12014,028.8,045.5,0.484,736.4,01.18,0.508
2014-06-15 03:18:00,1747E-3,5C000000,-0724,0842,12131,028.8,045.5,0.483,736.3,01.18,0.508
2014-06-15 03:19:00,1864E-3,5C000000,-0724,0842,12014,028.8,045.5,0.483,736.3,01.18,0.508
2014-06-15 03:20:00,1813E-3,5C000000,-0724,0841,12219,028.8,045.5,0.484,736.2,01.18,0.508
2014-06-15 03:21:00,1746E-3,5C000000,-0724,0841,12086,028.8,045.5,0.484,736.3,01.18,0.508
2014-06-15 03:22:00,1751E-3,5C000000,-0724,0840,12113,028.8,045.5,0.484,736.2,01.18,0.508
2014-06-15 03:23:00,1858E-3,5C000000,-0724,0842,11952,028.8,045.5,0.483,736.2,01.18,0.508
2014-06-15 03:24:00,1836E-3,5C000000,-0724,0842,11765,028.8,045.5,0.483,736.1,01.18,0.508
2014-06-15 03:25:00,1828E-3,5C000000,-0724,0841,11999,028.8,045.5,0.484,736.2,01.18,0.508
2014-06-15 03:26:00,1832E-3,5C000000,-0724,0842,12143,028.8,045.5,0.484,736.2,01.18,0.508
2014-06-15 03:27:00,1861E-3,5C000000,-0724,0841,12155,028.8,045.5,0.484,736.0,01.18,0.508
2014-06-15 03:28:00,1827E-3,5C000000,-0724,0841,12015,028.8,045.5,0.483,736.1,01.18,0.508
2014-06-15 03:29:00,1755E-3,5C000000,-0724,0840,11890,028.8,045.5,0.483,736.1,01.18,0.508
2014-06-15 03:30:00,1923E-3,5C000000,-0724,0841,12051,028.8,045.5,0.483,736.0,01.18,0.508
2014-06-15 03:31:00,1856E-3,5C000000,-0724,0841,12013,028.8,045.5,0.484,735.9,01.18,0.508
2014-06-15 03:32:00,1771E-3,5C000000,-0724,0841,12170,028.8,045.5,0.484,736.0,01.18,0.508
2014-06-15 03:33:00,1938E-3,5C000000,-0724,0842,12087,028.9,045.5,0.484,736.0,01.18,0.508
2014-06-15 03:34:00,1801E-3,5C000000,-0724,0841,12017,028.8,045.5,0.483,735.8,01.18,0.508
2014-06-15 03:35:00,1743E-3,5C000000,-0724,0841,11964,028.8,045.5,0.483,736.0,01.18,0.508
2014-06-15 03:36:00,1805E-3,5C000000,-0724,0842,11997,028.8,045.5,0.483,736.1,01.18,0.508
2014-06-15 03:37:00,1760E-3,5C000000,-0724,0842,12145,028.8,045.5,0.483,735.8,01.18,0.508
2014-06-15 03:38:00,1898E-3,5C000000,-0724,0841,12124,028.8,045.5,0.484,736.1,01.18,0.508
2014-06-15 03:39:00,1890E-3,5C000000,-0724,0842,11888,028.8,045.5,0.484,736.0,01.18,0.508
2014-06-15 03:40:00,1829E-3,5C000000,-0724,0841,12153,028.8,045.5,0.483,736.0,01.18,0.508
2014-06-15 03:41:00,1851E-3,5C000000,-0724,0842,12224,028.8,045.5,0.483,736.1,01.18,0.508
2014-06-15 03:42:00,1867E-3,5C000000,-0724,0842,11918,028.9,045.5,0.483,736.0,01.18,0.508
2014-06-15 03:43:00,1768E-3,5C000000,-0724,0841,12238,028.8,045.5,0.483,735.9,01.18,0.508
2014-06-15 03:44:00,1772E-3,5C000000,-0724,0841,12159,028.8,045.5,0.484,736.0,01.18,0.508
2014-06-15 03:45:00,1905E-3,5C000000,-0724,0841,12119,028.8,045.5,0.484,736.0,01.18,0.508
2014-06-15 03:46:00,1800E-3,5C000000,-0724,0841,12132,028.8,045.5,0.483,735.9,01.18,0.508
2014-06-15 03:47:00,1793E-3,5C000000,-0724,0842,12250,028.8,045.5,0.483,736.1,01.18,0.508
2014-06-15 03:48:00,1939E-3,5C000000,-0724,0841,12039,028.8,045.5,0.483,736.1,01.18,0.508
2014-06-15 03:49:00,1806E-3,5C000000,-0724,0841,12067,028.8,045.5,0.483,736.1,01.18,0.508
2014-06-15 03:50:00,1833E-3,5C000000,-0724,0842,12057,028.8,045.5,0.484,735.9,01.18,0.508
2014-06-15 03:51:00,1871E-3,5C000000,-0724,0842,12192,028.8,045.5,0.484,736.0,01.18,0.508
2014-06-15 03:52:00,1792E-3,5C000000,-0724,0841,12071,028.8,045.5,0.484,736.0,01.18,0.508
2014-06-15 03:53:00,1804E-3,5C000000,-0724,0842,12062,028.8,045.5,0.483,736.0,01.18,0.508
2014-06-15 03:54:00,1758E-3,5C000000,-0724,0842,12151,028.8,045.5,0.483,736.0,01.18,0.508
2014-06-15 03:55:00,1795E-3,5C000000,-0724,0842,12110,028.8,045.5,0.483,736.2,01.18,0.508
2014-06-15 03:56:00,1830E-3,5C000000,-0724,0842,12024,028.8,045.5,0.483,736.0,01.18,0.508
2014-06-15 03:57:00,1847E-3,5C000000,-0724,0841,12058,028.7,045.5,0.484,736.0,01.18,0.508
2014-06-15 03:58:00,1876E-3,5C000000,-0724,0841,12138,028.7,045.5,0.484,736.0,01.18,0.508
2014-06-15 03:59:00,1763E-3,5C000000,-0724,0842,12159,028.7,045.5,0.484,736.1,01.18,0.508
2014-06-15 04:00:00,1827E-3,5C000000,-0724,0842,11845,028.7,045.5,0.483,736.0,01.18,0.508
2014-06-15 04:01:00,1777E-3,5C000000,-0724,0842,12189,028.7,045.5,0.483,735.7,01.18,0.508
2014-06-15 04:02:00,1852E-3,5C000000,-0724,0842,12091,028.7,045.5,0.483,736.0,01.18,0.508
2014-06-15 04:03:00,1942E-3,5C000000,-0724,0842,11923,028.8,045.5,0.483,735.9,01.18,0.508
2014-06-15 04:04:00,1923E-3,5C000000,-0724,0841,12112,028.7,045.5,0.483,735.9,01.18,0.508
2014-06-15 04:05:00,1778E-3,5C000000,-0724,0841,12031,028.7,045.5,0.484,736.1,01.18,0.508
2014-06-15 04:06:00,1787E-3,5C000000,-0724,0841,12067,028.8,045.5,0.484,735.9,01.18,0.508
2014-06-15 04:07:00,1787E-3,5C000000,-0724,0843,12154,028.7,045.5,0.484,736.1,01.18,0.508
2014-06-15 04:08:00,1702E-3,5C000000,-0724,0842,12075,028.7,045.5,0.484,736.1,01.18,0.508
2014-06-15 04:09:00,1854E-3,5C000000,-0724,0841,12201,028.7,045.5,0.483,735.9,01.18,0.508
2014-06-15 04:10:00,1824E-3,5C000000,-0724,0841,11995,028.7,045.5,0.483,736.0,01.18,0.508
2014-06-15 04:11:00,1909E-3,5C000000,-0724,0841,11938,028.7,045.5,0.483,736.0,01.18,0.508
2014-06-15 04:12:00,1956E-3,5C000000,-0724,0842,12190,028.7,045.5,0.483,736.2,01.18,0.508
2014-06-15 04:13:00,1776E-3,5C000000,-0724,0841,12185,028.7,045.5,0.484,736.0,01.18,0.508
2014-06-15 04:14:00,1743E-3,5C000000,-0724,0841,12035,028.7,045.5,0.484,736.1,01.18,0.508
2014-06-15 04:15:00,1880E-3,5C000000,-0724,0842,12161,028.7,045.5,0.484,736.1,01.18,0.508
2014-06-15 04:16:00,1829E-3,5C000000,-0724,0842,12127,028.7,045.5,0.484,736.3,01.18,0.508
2014-06-15 04:17:00,1644E-3,5C000000,-0724,0842,12254,028.6,045.5,0.484,736.2,01.18,0.508
2014-06-15 04:18:00,1919E-3,5C000000,-0724,0841,11910,028.6,045.5,0.484,736.3,01.18,0.508
2014-06-15 04:19:00,1764E-3,5C000000,-0724,0841,12105,028.6,045.5,0.483,736.2,01.18,0.508
2014-06-15 04:20:00,1982E-3,5C000000,-0724,0841,12108,028.6,045.5,0.483,736.4,01.18,0.508